Year,Month,Day,Hour,Minute,Value (Times are PST for windgust in km/hr)
2013,09,28,00,01,1.60
2013,09,28,00,02,3.20
2013,09,28,00,03,3.20
2013,09,28,00,04,3.20
2013,09,28,00,05,3.20
2013,09,28,00,06,4.80
2013,09,28,00,07,6.40
2013,09,28,00,08,6.40
2013,09,28,00,09,4.80
2013,09,28,00,10,6.40
2013,09,28,00,11,4.80
2013,09,28,00,12,8.10
2013,09,28,00,13,6.40
2013,09,28,00,14,4.80
2013,09,28,00,15,6.40
2013,09,28,00,16,8.10
2013,09,28,00,17,6.40
2013,09,28,00,18,8.10
2013,09,28,00,19,8.10
2013,09,28,00,20,6.40
2013,09,28,00,21,8.10
2013,09,28,00,22,6.40
2013,09,28,00,23,9.60
2013,09,28,00,24,6.40
2013,09,28,00,25,4.80
2013,09,28,00,26,6.40
2013,09,28,00,27,6.40
2013,09,28,00,28,6.40
2013,09,28,00,29,4.80
2013,09,28,00,30,4.80
2013,09,28,00,31,3.20
2013,09,28,00,32,3.20
2013,09,28,00,33,4.80
2013,09,28,00,34,6.40
2013,09,28,00,35,3.20
2013,09,28,00,36,4.80
2013,09,28,00,37,3.20
2013,09,28,00,38,3.20
2013,09,28,00,39,4.80
2013,09,28,00,40,3.20
2013,09,28,00,41,4.80
2013,09,28,00,42,6.40
2013,09,28,00,43,4.80
2013,09,28,00,44,4.80
2013,09,28,00,45,3.20
2013,09,28,00,46,1.60
2013,09,28,00,47,3.20
2013,09,28,00,48,3.20
2013,09,28,00,49,3.20
2013,09,28,00,50,3.20
2013,09,28,00,51,3.20
2013,09,28,00,52,4.80
2013,09,28,00,53,4.80
2013,09,28,00,54,4.80
2013,09,28,00,55,4.80
2013,09,28,00,56,4.80
2013,09,28,00,57,3.20
2013,09,28,00,58,3.20
2013,09,28,00,59,1.60
2013,09,28,01,01,1.60
2013,09,28,01,06,3.20
2013,09,28,01,07,4.80
2013,09,28,01,08,4.80
2013,09,28,01,09,4.80
2013,09,28,01,10,6.40
2013,09,28,01,11,8.10
2013,09,28,01,12,4.80
2013,09,28,01,13,1.60
2013,09,28,01,14,3.20
2013,09,28,01,15,6.40
2013,09,28,01,16,6.40
2013,09,28,01,17,3.20
2013,09,28,01,18,3.20
2013,09,28,01,19,3.20
2013,09,28,01,20,3.20
2013,09,28,01,21,1.60
2013,09,28,01,22,3.20
2013,09,28,01,24,3.20
2013,09,28,01,25,3.20
2013,09,28,01,26,4.80
2013,09,28,01,27,3.20
2013,09,28,01,28,4.80
2013,09,28,01,29,4.80
2013,09,28,01,30,3.20
2013,09,28,01,31,3.20
2013,09,28,01,32,3.20
2013,09,28,01,33,3.20
2013,09,28,01,34,1.60
2013,09,28,01,35,1.60
2013,09,28,01,36,3.20
2013,09,28,01,37,1.60
2013,09,28,01,38,3.20
2013,09,28,01,39,3.20
2013,09,28,01,40,1.60
2013,09,28,01,41,3.20
2013,09,28,01,42,1.60
2013,09,28,01,43,1.60
2013,09,28,01,45,1.60
2013,09,28,01,46,1.60
2013,09,28,01,47,1.60
2013,09,28,01,48,1.60
2013,09,28,01,49,3.20
2013,09,28,01,50,1.60
2013,09,28,01,51,1.60
2013,09,28,01,52,3.20
2013,09,28,01,53,1.60
2013,09,28,01,54,1.60
2013,09,28,01,55,1.60
2013,09,28,01,56,3.20
2013,09,28,01,57,3.20
2013,09,28,01,58,3.20
2013,09,28,01,59,3.20
2013,09,28,02,00,1.60
2013,09,28,02,01,1.60
2013,09,28,02,02,1.60
2013,09,28,02,03,1.60
2013,09,28,02,04,1.60
2013,09,28,02,05,3.20
2013,09,28,02,06,3.20
2013,09,28,02,07,3.20
2013,09,28,02,08,4.80
2013,09,28,02,09,4.80
2013,09,28,02,10,4.80
2013,09,28,02,11,6.40
2013,09,28,02,12,4.80
2013,09,28,02,13,4.80
2013,09,28,02,14,6.40
2013,09,28,02,15,4.80
2013,09,28,02,16,1.60
2013,09,28,02,18,1.60
2013,09,28,02,19,3.20
2013,09,28,02,20,1.60
2013,09,28,02,21,1.60
2013,09,28,02,22,1.60
2013,09,28,02,23,3.20
2013,09,28,02,24,4.80
2013,09,28,02,25,3.20
2013,09,28,02,26,3.20
2013,09,28,02,27,3.20
2013,09,28,02,28,1.60
2013,09,28,02,29,3.20
2013,09,28,02,30,3.20
2013,09,28,02,31,1.60
2013,09,28,02,32,1.60
2013,09,28,02,33,1.60
2013,09,28,02,41,1.60
2013,09,28,02,42,1.60
2013,09,28,02,49,1.60
2013,09,28,02,50,3.20
2013,09,28,02,51,4.80
2013,09,28,02,52,6.40
2013,09,28,02,53,6.40
2013,09,28,02,54,8.10
2013,09,28,02,55,8.10
2013,09,28,02,56,8.10
2013,09,28,02,57,6.40
2013,09,28,02,58,4.80
2013,09,28,02,59,4.80
2013,09,28,03,00,6.40
2013,09,28,03,01,4.80
2013,09,28,03,02,3.20
2013,09,28,03,03,4.80
2013,09,28,03,04,6.40
2013,09,28,03,05,4.80
2013,09,28,03,06,6.40
2013,09,28,03,07,4.80
2013,09,28,03,08,3.20
2013,09,28,03,09,6.40
2013,09,28,03,10,4.80
2013,09,28,03,11,6.40
2013,09,28,03,12,6.40
2013,09,28,03,13,4.80
2013,09,28,03,14,6.40
2013,09,28,03,15,4.80
2013,09,28,03,16,4.80
2013,09,28,03,17,6.40
2013,09,28,03,18,4.80
2013,09,28,03,19,6.40
2013,09,28,03,20,6.40
2013,09,28,03,21,1.60
2013,09,28,03,22,1.60
2013,09,28,03,23,4.80
2013,09,28,03,24,8.10
2013,09,28,03,25,6.40
2013,09,28,03,26,8.10
2013,09,28,03,27,8.10
2013,09,28,03,28,11.30
2013,09,28,03,29,11.30
2013,09,28,03,30,9.60
2013,09,28,03,31,9.60
2013,09,28,03,32,8.10
2013,09,28,03,33,8.10
2013,09,28,03,34,6.40
2013,09,28,03,35,11.30
2013,09,28,03,36,12.90
2013,09,28,03,37,11.30
2013,09,28,03,38,6.40
2013,09,28,03,39,8.10
2013,09,28,03,40,9.60
2013,09,28,03,41,8.10
2013,09,28,03,42,6.40
2013,09,28,03,43,4.80
2013,09,28,03,44,8.10
2013,09,28,03,45,6.40
2013,09,28,03,46,6.40
2013,09,28,03,47,4.80
2013,09,28,03,48,1.60
2013,09,28,03,55,3.20
2013,09,28,03,56,1.60
2013,09,28,03,57,3.20
2013,09,28,03,58,1.60
2013,09,28,04,09,1.60
2013,09,28,04,10,3.20
2013,09,28,04,11,4.80
2013,09,28,04,12,1.60
2013,09,28,04,13,3.20
2013,09,28,04,14,1.60
2013,09,28,04,15,3.20
2013,09,28,04,16,4.80
2013,09,28,04,17,4.80
2013,09,28,04,18,4.80
2013,09,28,04,19,3.20
2013,09,28,04,20,3.20
2013,09,28,04,21,3.20
2013,09,28,04,22,1.60
2013,09,28,04,23,3.20
2013,09,28,04,24,3.20
2013,09,28,04,25,3.20
2013,09,28,04,26,3.20
2013,09,28,04,27,3.20
2013,09,28,04,28,3.20
2013,09,28,04,29,4.80
2013,09,28,04,30,4.80
2013,09,28,04,31,4.80
2013,09,28,04,32,4.80
2013,09,28,04,33,4.80
2013,09,28,04,34,4.80
2013,09,28,04,35,4.80
2013,09,28,04,36,4.80
2013,09,28,04,37,4.80
2013,09,28,04,38,4.80
2013,09,28,04,39,3.20
2013,09,28,04,40,6.40
2013,09,28,04,41,6.40
2013,09,28,04,42,6.40
2013,09,28,04,43,4.80
2013,09,28,04,44,6.40
2013,09,28,04,45,6.40
2013,09,28,04,46,6.40
2013,09,28,04,47,8.10
2013,09,28,04,48,8.10
2013,09,28,04,49,8.10
2013,09,28,04,50,4.80
2013,09,28,04,51,6.40
2013,09,28,04,52,4.80
2013,09,28,04,53,4.80
2013,09,28,04,54,4.80
2013,09,28,04,55,4.80
2013,09,28,04,56,6.40
2013,09,28,04,57,6.40
2013,09,28,04,58,4.80
2013,09,28,04,59,3.20
2013,09,28,05,00,4.80
2013,09,28,05,01,4.80
2013,09,28,05,02,4.80
2013,09,28,05,03,4.80
2013,09,28,05,04,6.40
2013,09,28,05,05,8.10
2013,09,28,05,06,6.40
2013,09,28,05,07,9.60
2013,09,28,05,08,9.60
2013,09,28,05,09,6.40
2013,09,28,05,10,6.40
2013,09,28,05,11,8.10
2013,09,28,05,12,6.40
2013,09,28,05,13,6.40
2013,09,28,05,14,6.40
2013,09,28,05,15,6.40
2013,09,28,05,16,4.80
2013,09,28,05,17,4.80
2013,09,28,05,18,3.20
2013,09,28,05,19,3.20
2013,09,28,05,20,4.80
2013,09,28,05,21,6.40
2013,09,28,05,22,6.40
2013,09,28,05,23,6.40
2013,09,28,05,24,6.40
2013,09,28,05,25,6.40
2013,09,28,05,26,8.10
2013,09,28,05,27,6.40
2013,09,28,05,28,8.10
2013,09,28,05,29,9.60
2013,09,28,05,30,6.40
2013,09,28,05,31,8.10
2013,09,28,05,32,9.60
2013,09,28,05,33,6.40
2013,09,28,05,34,8.10
2013,09,28,05,35,8.10
2013,09,28,05,36,9.60
2013,09,28,05,37,8.10
2013,09,28,05,38,8.10
2013,09,28,05,39,11.30
2013,09,28,05,40,12.90
2013,09,28,05,41,14.50
2013,09,28,05,42,9.60
2013,09,28,05,43,9.60
2013,09,28,05,44,16.10
2013,09,28,05,45,9.60
2013,09,28,05,46,17.70
2013,09,28,05,47,19.30
2013,09,28,05,48,12.90
2013,09,28,05,49,9.60
2013,09,28,05,50,11.30
2013,09,28,05,51,11.30
2013,09,28,05,52,16.10
2013,09,28,05,53,11.30
2013,09,28,05,54,14.50
2013,09,28,05,55,14.50
2013,09,28,05,56,16.10
2013,09,28,05,57,11.30
2013,09,28,05,58,16.10
2013,09,28,05,59,14.50
2013,09,28,06,00,11.30
2013,09,28,06,01,17.70
2013,09,28,06,02,22.50
2013,09,28,06,03,20.90
2013,09,28,06,04,19.30
2013,09,28,06,05,17.70
2013,09,28,06,06,19.30
2013,09,28,06,07,20.90
2013,09,28,06,08,17.70
2013,09,28,06,09,20.90
2013,09,28,06,10,20.90
2013,09,28,06,11,22.50
2013,09,28,06,12,16.10
2013,09,28,06,13,20.90
2013,09,28,06,14,27.40
2013,09,28,06,15,24.20
2013,09,28,06,16,27.40
2013,09,28,06,17,22.50
2013,09,28,06,18,22.50
2013,09,28,06,19,16.10
2013,09,28,06,20,16.10
2013,09,28,06,21,27.40
2013,09,28,06,22,29.00
2013,09,28,06,23,25.70
2013,09,28,06,24,24.20
2013,09,28,06,25,25.70
2013,09,28,06,26,29.00
2013,09,28,06,27,27.40
2013,09,28,06,28,24.20
2013,09,28,06,29,25.70
2013,09,28,06,30,30.60
2013,09,28,06,31,24.20
2013,09,28,06,32,29.00
2013,09,28,06,33,14.50
2013,09,28,06,34,25.70
2013,09,28,06,35,19.30
2013,09,28,06,36,22.50
2013,09,28,06,37,20.90
2013,09,28,06,38,30.60
2013,09,28,06,39,27.40
2013,09,28,06,40,25.70
2013,09,28,06,41,24.20
2013,09,28,06,42,22.50
2013,09,28,06,43,22.50
2013,09,28,06,44,17.70
2013,09,28,06,45,16.10
2013,09,28,06,46,22.50
2013,09,28,06,47,9.60
2013,09,28,06,48,16.10
2013,09,28,06,49,20.90
2013,09,28,06,50,20.90
2013,09,28,06,51,24.20
2013,09,28,06,52,22.50
2013,09,28,06,53,20.90
2013,09,28,06,54,24.20
2013,09,28,06,55,17.70
2013,09,28,06,56,19.30
2013,09,28,06,57,24.20
2013,09,28,06,58,16.10
2013,09,28,06,59,17.70
2013,09,28,07,00,20.90
2013,09,28,07,01,25.70
2013,09,28,07,02,22.50
2013,09,28,07,03,24.20
2013,09,28,07,04,30.60
2013,09,28,07,05,24.20
2013,09,28,07,06,30.60
2013,09,28,07,07,32.20
2013,09,28,07,08,25.70
2013,09,28,07,09,35.40
2013,09,28,07,10,30.60
2013,09,28,07,11,38.60
2013,09,28,07,12,27.40
2013,09,28,07,13,29.00
2013,09,28,07,14,17.70
2013,09,28,07,15,24.20
2013,09,28,07,16,24.20
2013,09,28,07,17,35.40
2013,09,28,07,18,30.60
2013,09,28,07,19,24.20
2013,09,28,07,20,27.40
2013,09,28,07,21,32.20
2013,09,28,07,22,25.70
2013,09,28,07,23,16.10
2013,09,28,07,24,35.40
2013,09,28,07,25,30.60
2013,09,28,07,26,25.70
2013,09,28,07,27,48.30
2013,09,28,07,28,37.00
2013,09,28,07,29,27.40
2013,09,28,07,30,29.00
2013,09,28,07,31,27.40
2013,09,28,07,32,35.40
2013,09,28,07,33,38.60
2013,09,28,07,34,43.50
2013,09,28,07,35,41.80
2013,09,28,07,36,33.80
2013,09,28,07,37,30.60
2013,09,28,07,38,29.00
2013,09,28,07,39,35.40
2013,09,28,07,40,25.70
2013,09,28,07,41,32.20
2013,09,28,07,42,35.40
2013,09,28,07,43,45.10
2013,09,28,07,44,32.20
2013,09,28,07,45,32.20
2013,09,28,07,46,38.60
2013,09,28,07,47,43.50
2013,09,28,07,48,35.40
2013,09,28,07,49,32.20
2013,09,28,07,50,40.20
2013,09,28,07,51,38.60
2013,09,28,07,52,43.50
2013,09,28,07,53,43.50
2013,09,28,07,54,38.60
2013,09,28,07,55,35.40
2013,09,28,07,56,35.40
2013,09,28,07,57,40.20
2013,09,28,07,58,33.80
2013,09,28,07,59,35.40
2013,09,28,08,00,32.20
2013,09,28,08,01,25.70
2013,09,28,08,02,41.80
2013,09,28,08,03,38.60
2013,09,28,08,04,48.30
2013,09,28,08,05,35.40
2013,09,28,08,06,27.40
2013,09,28,08,07,40.20
2013,09,28,08,08,22.50
2013,09,28,08,09,30.60
2013,09,28,08,10,30.60
2013,09,28,08,11,30.60
2013,09,28,08,12,30.60
2013,09,28,08,13,24.20
2013,09,28,08,14,37.00
2013,09,28,08,15,40.20
2013,09,28,08,16,40.20
2013,09,28,08,17,40.20
2013,09,28,08,18,40.20
2013,09,28,08,19,30.60
2013,09,28,08,20,35.40
2013,09,28,08,21,32.20
2013,09,28,08,22,22.50
2013,09,28,08,23,33.80
2013,09,28,08,24,32.20
2013,09,28,08,25,25.70
2013,09,28,08,26,27.40
2013,09,28,08,27,22.50
2013,09,28,08,28,32.20
2013,09,28,08,29,29.00
2013,09,28,08,30,19.30
2013,09,28,08,31,29.00
2013,09,28,08,32,29.00
2013,09,28,08,33,30.60
2013,09,28,08,34,25.70
2013,09,28,08,35,41.80
2013,09,28,08,36,25.70
2013,09,28,08,37,25.70
2013,09,28,08,38,22.50
2013,09,28,08,39,25.70
2013,09,28,08,40,29.00
2013,09,28,08,41,29.00
2013,09,28,08,42,32.20
2013,09,28,08,43,27.40
2013,09,28,08,44,30.60
2013,09,28,08,45,24.20
2013,09,28,08,46,24.20
2013,09,28,08,47,27.40
2013,09,28,08,48,24.20
2013,09,28,08,49,19.30
2013,09,28,08,50,35.40
2013,09,28,08,51,27.40
2013,09,28,08,52,17.70
2013,09,28,08,53,27.40
2013,09,28,08,54,35.40
2013,09,28,08,55,29.00
2013,09,28,08,56,27.40
2013,09,28,08,57,19.30
2013,09,28,08,58,16.10
2013,09,28,08,59,11.30
2013,09,28,09,00,17.70
2013,09,28,09,01,16.10
2013,09,28,09,02,24.20
2013,09,28,09,03,20.90
2013,09,28,09,04,25.70
2013,09,28,09,05,24.20
2013,09,28,09,06,24.20
2013,09,28,09,07,9.60
2013,09,28,09,08,8.10
2013,09,28,09,09,11.30
2013,09,28,09,10,8.10
2013,09,28,09,11,8.10
2013,09,28,09,12,8.10
2013,09,28,09,13,9.60
2013,09,28,09,14,8.10
2013,09,28,09,15,8.10
2013,09,28,09,16,11.30
2013,09,28,09,17,19.30
2013,09,28,09,18,16.10
2013,09,28,09,19,16.10
2013,09,28,09,20,19.30
2013,09,28,09,21,11.30
2013,09,28,09,22,11.30
2013,09,28,09,23,9.60
2013,09,28,09,24,11.30
2013,09,28,09,25,11.30
2013,09,28,09,26,20.90
2013,09,28,09,27,19.30
2013,09,28,09,28,19.30
2013,09,28,09,29,25.70
2013,09,28,09,30,20.90
2013,09,28,09,31,20.90
2013,09,28,09,32,22.50
2013,09,28,09,33,22.50
2013,09,28,09,34,22.50
2013,09,28,09,35,25.70
2013,09,28,09,36,19.30
2013,09,28,09,37,16.10
2013,09,28,09,38,16.10
2013,09,28,09,39,17.70
2013,09,28,09,40,19.30
2013,09,28,09,41,14.50
2013,09,28,09,42,20.90
2013,09,28,09,43,19.30
2013,09,28,09,44,20.90
2013,09,28,09,45,20.90
2013,09,28,09,46,19.30
2013,09,28,09,47,20.90
2013,09,28,09,48,16.10
2013,09,28,09,49,20.90
2013,09,28,09,50,20.90
2013,09,28,09,51,8.10
2013,09,28,09,52,4.80
2013,09,28,09,53,4.80
2013,09,28,09,54,4.80
2013,09,28,09,55,19.30
2013,09,28,09,56,19.30
2013,09,28,09,57,19.30
2013,09,28,09,58,24.20
2013,09,28,09,59,17.70
2013,09,28,10,00,17.70
2013,09,28,10,01,17.70
2013,09,28,10,02,24.20
2013,09,28,10,03,19.30
2013,09,28,10,04,20.90
2013,09,28,10,05,17.70
2013,09,28,10,06,17.70
2013,09,28,10,07,19.30
2013,09,28,10,08,17.70
2013,09,28,10,09,17.70
2013,09,28,10,10,17.70
2013,09,28,10,11,19.30
2013,09,28,10,12,19.30
2013,09,28,10,13,19.30
2013,09,28,10,14,20.90
2013,09,28,10,15,17.70
2013,09,28,10,16,11.30
2013,09,28,10,17,14.50
2013,09,28,10,18,16.10
2013,09,28,10,19,17.70
2013,09,28,10,20,17.70
2013,09,28,10,21,19.30
2013,09,28,10,22,19.30
2013,09,28,10,23,17.70
2013,09,28,10,24,16.10
2013,09,28,10,25,19.30
2013,09,28,10,26,17.70
2013,09,28,10,27,16.10
2013,09,28,10,28,17.70
2013,09,28,10,29,17.70
2013,09,28,10,30,25.70
2013,09,28,10,31,17.70
2013,09,28,10,32,20.90
2013,09,28,10,33,19.30
2013,09,28,10,34,22.50
2013,09,28,10,35,20.90
2013,09,28,10,36,20.90
2013,09,28,10,37,20.90
2013,09,28,10,38,20.90
2013,09,28,10,39,17.70
2013,09,28,10,40,16.10
2013,09,28,10,41,24.20
2013,09,28,10,42,19.30
2013,09,28,10,43,14.50
2013,09,28,10,44,17.70
2013,09,28,10,45,17.70
2013,09,28,10,46,16.10
2013,09,28,10,47,19.30
2013,09,28,10,48,16.10
2013,09,28,10,49,14.50
2013,09,28,10,50,17.70
2013,09,28,10,51,17.70
2013,09,28,10,52,16.10
2013,09,28,10,53,16.10
2013,09,28,10,54,17.70
2013,09,28,10,55,16.10
2013,09,28,10,56,14.50
2013,09,28,10,57,12.90
2013,09,28,10,58,16.10
2013,09,28,10,59,9.60
2013,09,28,11,00,9.60
2013,09,28,11,01,11.30
2013,09,28,11,02,8.10
2013,09,28,11,03,12.90
2013,09,28,11,04,11.30
2013,09,28,11,05,11.30
2013,09,28,11,06,11.30
2013,09,28,11,07,14.50
2013,09,28,11,08,17.70
2013,09,28,11,09,14.50
2013,09,28,11,10,12.90
2013,09,28,11,11,9.60
2013,09,28,11,12,11.30
2013,09,28,11,13,11.30
2013,09,28,11,14,14.50
2013,09,28,11,15,16.10
2013,09,28,11,16,12.90
2013,09,28,11,17,9.60
2013,09,28,11,18,9.60
2013,09,28,11,19,11.30
2013,09,28,11,20,9.60
2013,09,28,11,21,11.30
2013,09,28,11,22,9.60
2013,09,28,11,23,11.30
2013,09,28,11,24,12.90
2013,09,28,11,25,9.60
2013,09,28,11,26,9.60
2013,09,28,11,27,8.10
2013,09,28,11,28,4.80
2013,09,28,11,29,3.20
2013,09,28,11,30,8.10
2013,09,28,11,31,4.80
2013,09,28,11,32,9.60
2013,09,28,11,33,11.30
2013,09,28,11,34,11.30
2013,09,28,11,35,8.10
2013,09,28,11,36,8.10
2013,09,28,11,37,6.40
2013,09,28,11,38,8.10
2013,09,28,11,39,4.80
2013,09,28,11,40,3.20
2013,09,28,11,41,3.20
2013,09,28,11,42,16.10
2013,09,28,11,43,6.40
2013,09,28,11,44,8.10
2013,09,28,11,45,11.30
2013,09,28,11,46,11.30
2013,09,28,11,47,16.10
2013,09,28,11,48,14.50
2013,09,28,11,49,11.30
2013,09,28,11,50,17.70
2013,09,28,11,51,17.70
2013,09,28,11,52,12.90
2013,09,28,11,53,12.90
2013,09,28,11,54,14.50
2013,09,28,11,55,9.60
2013,09,28,11,56,9.60
2013,09,28,11,57,8.10
2013,09,28,11,58,9.60
2013,09,28,11,59,19.30
2013,09,28,12,00,20.90
2013,09,28,12,01,11.30
2013,09,28,12,02,14.50
2013,09,28,12,03,14.50
2013,09,28,12,04,11.30
2013,09,28,12,05,12.90
2013,09,28,12,06,16.10
2013,09,28,12,07,11.30
2013,09,28,12,08,14.50
2013,09,28,12,09,16.10
2013,09,28,12,10,14.50
2013,09,28,12,11,19.30
2013,09,28,12,12,14.50
2013,09,28,12,13,11.30
2013,09,28,12,14,11.30
2013,09,28,12,15,17.70
2013,09,28,12,16,11.30
2013,09,28,12,17,9.60
2013,09,28,12,18,9.60
2013,09,28,12,19,11.30
2013,09,28,12,20,11.30
2013,09,28,12,21,8.10
2013,09,28,12,22,9.60
2013,09,28,12,23,16.10
2013,09,28,12,24,11.30
2013,09,28,12,25,11.30
2013,09,28,12,26,12.90
2013,09,28,12,27,14.50
2013,09,28,12,28,8.10
2013,09,28,12,29,9.60
2013,09,28,12,30,9.60
2013,09,28,12,31,6.40
2013,09,28,12,32,1.60
2013,09,28,12,33,6.40
2013,09,28,12,34,8.10
2013,09,28,12,35,9.60
2013,09,28,12,36,9.60
2013,09,28,12,37,3.20
2013,09,28,12,38,6.40
2013,09,28,12,39,4.80
2013,09,28,12,40,1.60
2013,09,28,12,42,1.60
2013,09,28,12,43,3.20
2013,09,28,12,44,1.60
2013,09,28,12,52,1.60
2013,09,28,12,53,1.60
2013,09,28,13,00,1.60
2013,09,28,13,01,1.60
2013,09,28,13,02,1.60
2013,09,28,13,03,1.60
2013,09,28,13,05,1.60
2013,09,28,13,06,3.20
2013,09,28,13,07,4.80
2013,09,28,13,08,3.20
2013,09,28,13,09,6.40
2013,09,28,13,10,6.40
2013,09,28,13,11,9.60
2013,09,28,13,12,16.10
2013,09,28,13,13,14.50
2013,09,28,13,14,12.90
2013,09,28,13,15,22.50
2013,09,28,13,16,20.90
2013,09,28,13,17,24.20
2013,09,28,13,18,24.20
2013,09,28,13,19,16.10
2013,09,28,13,20,9.60
2013,09,28,13,21,3.20
2013,09,28,13,22,3.20
2013,09,28,13,23,1.60
2013,09,28,13,24,1.60
2013,09,28,13,25,3.20
2013,09,28,13,26,4.80
2013,09,28,13,27,8.10
2013,09,28,13,28,8.10
2013,09,28,13,29,9.60
2013,09,28,13,30,12.90
2013,09,28,13,31,6.40
2013,09,28,13,32,6.40
2013,09,28,13,33,3.20
2013,09,28,13,34,3.20
2013,09,28,13,35,6.40
2013,09,28,13,36,9.60
2013,09,28,13,37,11.30
2013,09,28,13,38,9.60
2013,09,28,13,39,12.90
2013,09,28,13,40,11.30
2013,09,28,13,41,9.60
2013,09,28,13,42,8.10
2013,09,28,13,43,4.80
2013,09,28,13,44,4.80
2013,09,28,13,45,4.80
2013,09,28,13,46,11.30
2013,09,28,13,47,9.60
2013,09,28,13,48,4.80
2013,09,28,13,49,1.60
2013,09,28,13,50,4.80
2013,09,28,13,51,6.40
2013,09,28,13,52,8.10
2013,09,28,13,53,8.10
2013,09,28,13,54,11.30
2013,09,28,13,55,9.60
2013,09,28,13,56,4.80
2013,09,28,13,57,6.40
2013,09,28,13,58,6.40
2013,09,28,13,59,8.10
2013,09,28,14,00,8.10
2013,09,28,14,01,17.70
2013,09,28,14,02,17.70
2013,09,28,14,03,16.10
2013,09,28,14,04,8.10
2013,09,28,14,05,14.50
2013,09,28,14,06,11.30
2013,09,28,14,07,11.30
2013,09,28,14,08,8.10
2013,09,28,14,09,6.40
2013,09,28,14,10,8.10
2013,09,28,14,11,9.60
2013,09,28,14,12,9.60
2013,09,28,14,13,8.10
2013,09,28,14,14,6.40
2013,09,28,14,15,9.60
2013,09,28,14,16,9.60
2013,09,28,14,17,9.60
2013,09,28,14,18,11.30
2013,09,28,14,19,11.30
2013,09,28,14,20,9.60
2013,09,28,14,21,14.50
2013,09,28,14,22,14.50
2013,09,28,14,23,14.50
2013,09,28,14,24,17.70
2013,09,28,14,25,16.10
2013,09,28,14,26,19.30
2013,09,28,14,27,17.70
2013,09,28,14,28,19.30
2013,09,28,14,29,17.70
2013,09,28,14,30,17.70
2013,09,28,14,31,17.70
2013,09,28,14,32,17.70
2013,09,28,14,33,19.30
2013,09,28,14,34,22.50
2013,09,28,14,35,22.50
2013,09,28,14,36,27.40
2013,09,28,14,37,24.20
2013,09,28,14,38,24.20
2013,09,28,14,39,19.30
2013,09,28,14,40,27.40
2013,09,28,14,41,22.50
2013,09,28,14,42,22.50
2013,09,28,14,43,20.90
2013,09,28,14,44,19.30
2013,09,28,14,45,20.90
2013,09,28,14,46,19.30
2013,09,28,14,47,20.90
2013,09,28,14,48,17.70
2013,09,28,14,49,17.70
2013,09,28,14,50,16.10
2013,09,28,14,51,17.70
2013,09,28,14,52,19.30
2013,09,28,14,53,20.90
2013,09,28,14,54,25.70
2013,09,28,14,55,17.70
2013,09,28,14,56,22.50
2013,09,28,14,57,20.90
2013,09,28,14,58,19.30
2013,09,28,14,59,19.30
2013,09,28,15,00,16.10
2013,09,28,15,01,14.50
2013,09,28,15,02,17.70
2013,09,28,15,03,19.30
2013,09,28,15,04,16.10
2013,09,28,15,05,14.50
2013,09,28,15,06,16.10
2013,09,28,15,07,16.10
2013,09,28,15,08,17.70
2013,09,28,15,09,14.50
2013,09,28,15,10,17.70
2013,09,28,15,11,12.90
2013,09,28,15,12,9.60
2013,09,28,15,13,14.50
2013,09,28,15,14,14.50
2013,09,28,15,15,14.50
2013,09,28,15,16,16.10
2013,09,28,15,17,14.50
2013,09,28,15,18,14.50
2013,09,28,15,19,12.90
2013,09,28,15,20,16.10
2013,09,28,15,21,19.30
2013,09,28,15,22,14.50
2013,09,28,15,23,17.70
2013,09,28,15,24,19.30
2013,09,28,15,25,17.70
2013,09,28,15,26,16.10
2013,09,28,15,27,17.70
2013,09,28,15,28,14.50
2013,09,28,15,29,22.50
2013,09,28,15,30,17.70
2013,09,28,15,31,14.50
2013,09,28,15,32,11.30
2013,09,28,15,33,12.90
2013,09,28,15,34,9.60
2013,09,28,15,35,8.10
2013,09,28,15,36,8.10
2013,09,28,15,37,9.60
2013,09,28,15,38,9.60
2013,09,28,15,39,8.10
2013,09,28,15,40,8.10
2013,09,28,15,41,6.40
2013,09,28,15,42,6.40
2013,09,28,15,43,8.10
2013,09,28,15,44,8.10
2013,09,28,15,45,9.60
2013,09,28,15,46,11.30
2013,09,28,15,47,9.60
2013,09,28,15,48,9.60
2013,09,28,15,49,6.40
2013,09,28,15,50,9.60
2013,09,28,15,51,11.30
2013,09,28,15,52,11.30
2013,09,28,15,53,11.30
2013,09,28,15,54,6.40
2013,09,28,15,55,8.10
2013,09,28,15,56,8.10
2013,09,28,15,57,4.80
2013,09,28,15,58,1.60
2013,09,28,15,59,1.60
2013,09,28,16,01,1.60
2013,09,28,16,02,9.60
2013,09,28,16,03,11.30
2013,09,28,16,04,9.60
2013,09,28,16,05,16.10
2013,09,28,16,06,17.70
2013,09,28,16,07,20.90
2013,09,28,16,08,17.70
2013,09,28,16,09,20.90
2013,09,28,16,10,16.10
2013,09,28,16,11,19.30
2013,09,28,16,12,17.70
2013,09,28,16,13,19.30
2013,09,28,16,14,24.20
2013,09,28,16,15,22.50
2013,09,28,16,16,17.70
2013,09,28,16,17,19.30
2013,09,28,16,18,17.70
2013,09,28,16,19,16.10
2013,09,28,16,20,16.10
2013,09,28,16,21,11.30
2013,09,28,16,22,17.70
2013,09,28,16,23,16.10
2013,09,28,16,24,25.70
2013,09,28,16,25,16.10
2013,09,28,16,26,20.90
2013,09,28,16,27,22.50
2013,09,28,16,28,11.30
2013,09,28,16,29,16.10
2013,09,28,16,30,24.20
2013,09,28,16,31,22.50
2013,09,28,16,32,24.20
2013,09,28,16,33,32.20
2013,09,28,16,34,16.10
2013,09,28,16,35,24.20
2013,09,28,16,36,16.10
2013,09,28,16,37,22.50
2013,09,28,16,38,20.90
2013,09,28,16,39,17.70
2013,09,28,16,40,17.70
2013,09,28,16,41,16.10
2013,09,28,16,42,27.40
2013,09,28,16,43,17.70
2013,09,28,16,44,19.30
2013,09,28,16,45,25.70
2013,09,28,16,46,22.50
2013,09,28,16,47,20.90
2013,09,28,16,48,27.40
2013,09,28,16,49,29.00
2013,09,28,16,50,29.00
2013,09,28,16,51,20.90
2013,09,28,16,52,20.90
2013,09,28,16,53,22.50
2013,09,28,16,54,27.40
2013,09,28,16,55,20.90
2013,09,28,16,56,29.00
2013,09,28,16,57,24.20
2013,09,28,16,58,29.00
2013,09,28,16,59,27.40
2013,09,28,17,00,25.70
2013,09,28,17,01,27.40
2013,09,28,17,02,16.10
2013,09,28,17,03,22.50
2013,09,28,17,04,24.20
2013,09,28,17,05,32.20
2013,09,28,17,06,17.70
2013,09,28,17,07,25.70
2013,09,28,17,08,27.40
2013,09,28,17,09,22.50
2013,09,28,17,10,19.30
2013,09,28,17,11,22.50
2013,09,28,17,12,24.20
2013,09,28,17,13,17.70
2013,09,28,17,14,22.50
2013,09,28,17,15,20.90
2013,09,28,17,16,16.10
2013,09,28,17,17,14.50
2013,09,28,17,18,17.70
2013,09,28,17,19,22.50
2013,09,28,17,20,22.50
2013,09,28,17,21,17.70
2013,09,28,17,22,24.20
2013,09,28,17,23,16.10
2013,09,28,17,24,17.70
2013,09,28,17,25,20.90
2013,09,28,17,26,24.20
2013,09,28,17,27,19.30
2013,09,28,17,28,16.10
2013,09,28,17,29,22.50
2013,09,28,17,30,16.10
2013,09,28,17,31,14.50
2013,09,28,17,32,16.10
2013,09,28,17,33,11.30
2013,09,28,17,34,16.10
2013,09,28,17,35,22.50
2013,09,28,17,36,25.70
2013,09,28,17,37,24.20
2013,09,28,17,38,22.50
2013,09,28,17,39,16.10
2013,09,28,17,40,20.90
2013,09,28,17,41,20.90
2013,09,28,17,42,11.30
2013,09,28,17,43,8.10
2013,09,28,17,44,8.10
2013,09,28,17,45,14.50
2013,09,28,17,46,16.10
2013,09,28,17,47,11.30
2013,09,28,17,48,16.10
2013,09,28,17,49,9.60
2013,09,28,17,50,11.30
2013,09,28,17,51,14.50
2013,09,28,17,52,8.10
2013,09,28,17,53,9.60
2013,09,28,17,54,12.90
2013,09,28,17,55,12.90
2013,09,28,17,56,9.60
2013,09,28,17,57,17.70
2013,09,28,17,58,17.70
2013,09,28,17,59,17.70
2013,09,28,18,00,11.30
2013,09,28,18,01,17.70
2013,09,28,18,02,17.70
2013,09,28,18,03,16.10
2013,09,28,18,04,14.50
2013,09,28,18,05,9.60
2013,09,28,18,06,22.50
2013,09,28,18,07,17.70
2013,09,28,18,08,16.10
2013,09,28,18,09,17.70
2013,09,28,18,10,16.10
2013,09,28,18,11,8.10
2013,09,28,18,12,11.30
2013,09,28,18,13,17.70
2013,09,28,18,14,14.50
2013,09,28,18,15,11.30
2013,09,28,18,16,11.30
2013,09,28,18,17,20.90
2013,09,28,18,18,20.90
2013,09,28,18,19,16.10
2013,09,28,18,20,19.30
2013,09,28,18,21,17.70
2013,09,28,18,22,24.20
2013,09,28,18,23,27.40
2013,09,28,18,24,20.90
2013,09,28,18,25,29.00
2013,09,28,18,26,24.20
2013,09,28,18,27,19.30
2013,09,28,18,28,27.40
2013,09,28,18,29,17.70
2013,09,28,18,30,11.30
2013,09,28,18,31,27.40
2013,09,28,18,32,19.30
2013,09,28,18,33,19.30